contact:dominique.lefevre@mio.osupytheas.fr, maurice.libes@osupytheas.fr, didier.mallarino@osupytheas.fr
Project:EMSO http://www.emso-fr.org/EMSO-France
Depth: 2436.0 m
Title:EMSO Ligure Ouest : Data MII capteur AQUADOPP
Date,Latitude,Longitude,X_East,Y_North,Z_Up,Amplitude_X,Amplitude_Y,Amplitude_Z,Batterie,SoundSpeed,Heading,Pitch,Roll,Pressure,TIS,Speed,Direction
, degrees North, degrees East, m.s-1, m.s-1,m.s-1, 1, 1, 1, Volt, m.s-1, degree, degree, degree, dbar, degree_C, m.s-1, degree
2022-04-17T00:04:03,42.805,6.029,0.003,0.002,-0.003,103.0,104.0,101.0,13.3,1505.2,323.0,-0.7,1.8,2470.662,13.28,0.003,56.3
2022-04-17T00:07:03,42.805,6.029,0.003,0.006,-0.002,103.0,102.0,102.0,13.4,1505.2,328.3,-0.7,1.8,2470.665,13.29,0.006,26.6
2022-04-17T00:10:03,42.805,6.029,0.003,-0.012,-0.005,103.0,102.0,100.0,13.3,1505.2,333.2,-0.8,1.8,2470.687,13.29,0.012,166.0
2022-04-17T00:13:03,42.805,6.029,0.005,-0.018,-0.042,102.0,103.0,102.0,13.4,1505.2,332.3,-0.8,1.8,2470.658,13.29,0.018,164.5
2022-04-17T00:16:03,42.805,6.029,-0.003,-0.016,-0.037,103.0,103.0,101.0,13.3,1505.2,326.7,-0.8,1.8,2470.681,13.29,0.016,190.6
2022-04-17T00:19:03,42.805,6.029,0.009,0.005,0.004,104.0,100.0,102.0,13.3,1505.2,326.9,-0.8,1.8,2470.611,13.29,0.01,60.9
2022-04-17T00:22:03,42.805,6.029,-0.006,-0.004,0.009,103.0,102.0,100.0,13.4,1505.2,323.5,-0.8,1.8,2470.672,13.29,0.007,236.3
2022-04-17T00:25:03,42.805,6.029,-0.018,-0.007,0.0,102.0,101.0,102.0,13.4,1505.2,325.9,-0.8,1.8,2470.643,13.29,0.019,248.8
2022-04-17T00:28:03,42.805,6.029,-0.009,-0.008,-0.028,103.0,103.0,101.0,13.3,1505.2,327.6,-0.7,1.8,2470.674,13.29,0.012,228.4
2022-04-17T00:31:03,42.805,6.029,0.002,0.018,0.0,104.0,104.0,100.0,13.4,1505.2,329.7,-0.8,1.8,2470.637,13.29,0.018,6.3
2022-04-17T00:34:03,42.805,6.029,-0.003,-0.007,-0.002,106.0,102.0,101.0,13.4,1505.2,325.0,-0.7,1.8,2470.663,13.29,0.007,203.2
2022-04-17T00:37:03,42.805,6.029,-0.019,-0.007,-0.012,104.0,101.0,101.0,13.3,1505.2,327.4,-0.7,1.8,2470.652,13.29,0.02,249.8
2022-04-17T00:40:03,42.805,6.029,-0.017,-0.023,0.003,102.0,102.0,100.0,13.4,1505.2,327.7,-0.7,1.8,2470.662,13.29,0.028,216.5
2022-04-17T00:43:03,42.805,6.029,-0.004,-0.004,-0.033,102.0,103.0,101.0,13.4,1505.2,326.0,-0.8,1.8,2470.653,13.29,0.005,225.0
2022-04-17T00:46:03,42.805,6.029,0.009,-0.029,-0.015,102.0,103.0,102.0,13.4,1505.2,330.7,-0.7,1.8,2470.648,13.29,0.03,162.8
2022-04-17T00:49:03,42.805,6.029,0.002,-0.003,0.0,104.0,102.0,101.0,13.4,1505.2,328.6,-0.7,1.8,2470.602,13.29,0.003,146.3
2022-04-17T00:52:03,42.805,6.029,0.0,-0.005,-0.002,104.0,102.0,100.0,13.4,1505.2,323.8,-0.8,1.8,2470.614,13.29,0.005,180.0
2022-04-17T00:55:03,42.805,6.029,-0.004,-0.013,-0.031,100.0,101.0,103.0,13.3,1505.2,323.5,-0.7,1.8,2470.648,13.29,0.013,197.1
2022-04-17T00:58:03,42.805,6.029,-0.004,0.002,-0.009,101.0,101.0,102.0,13.4,1505.2,326.0,-0.8,1.8,2470.654,13.29,0.004,296.6
2022-04-17T01:04:03,42.805,6.029,-0.016,0.002,0.025,105.0,105.0,102.0,13.4,1505.2,327.1,-0.8,1.8,2470.68,13.28,0.016,277.1
2022-04-17T01:07:03,42.805,6.029,0.001,0.008,-0.009,105.0,103.0,101.0,13.3,1505.2,325.0,-0.7,1.8,2470.678,13.28,0.008,7.1
2022-04-17T01:10:03,42.805,6.029,-0.031,0.004,-0.023,104.0,102.0,102.0,13.4,1505.2,322.6,-0.8,1.8,2470.622,13.29,0.031,277.3
2022-04-17T01:13:03,42.805,6.029,-0.009,-0.016,-0.003,102.0,100.0,101.0,13.4,1505.2,327.6,-0.7,1.8,2470.642,13.29,0.018,209.4
2022-04-17T01:16:03,42.805,6.029,-0.016,0.008,-0.024,103.0,101.0,103.0,13.3,1505.2,324.7,-0.8,1.8,2470.579,13.29,0.017,296.6
2022-04-17T01:19:03,42.805,6.029,-0.017,0.007,-0.022,103.0,103.0,101.0,13.4,1505.2,324.0,-0.8,1.8,2470.665,13.29,0.018,292.4
2022-04-17T01:22:03,42.805,6.029,-0.015,0.0,-0.013,102.0,102.0,102.0,13.4,1505.2,324.3,-0.7,1.8,2470.637,13.29,0.015,270.0
2022-04-17T01:25:03,42.805,6.029,0.002,-0.002,0.004,103.0,101.0,101.0,13.3,1505.2,328.8,-0.7,1.8,2470.64,13.29,0.002,135.0
2022-04-17T01:28:03,42.805,6.029,0.0,-0.015,-0.013,102.0,102.0,102.0,13.4,1505.2,324.5,-0.8,1.8,2470.615,13.29,0.015,180.0
2022-04-17T01:31:03,42.805,6.029,-0.018,0.002,-0.005,101.0,103.0,101.0,13.4,1505.2,326.5,-0.8,1.8,2470.634,13.29,0.018,276.3
2022-04-17T01:34:03,42.805,6.029,-0.027,-0.013,-0.021,102.0,102.0,101.0,13.3,1505.2,332.3,-0.8,1.9,2470.645,13.29,0.029,244.3
2022-04-17T01:37:03,42.805,6.029,0.005,-0.011,-0.026,104.0,101.0,101.0,13.4,1505.2,332.7,-0.7,1.9,2470.633,13.29,0.012,155.6
2022-04-17T01:40:03,42.805,6.029,-0.001,0.003,-0.021,101.0,102.0,100.0,13.4,1505.2,328.6,-0.7,1.8,2470.637,13.29,0.003,341.6
2022-04-17T01:43:03,42.805,6.029,-0.003,-0.017,-0.012,103.0,103.0,101.0,13.4,1505.2,325.8,-0.8,1.8,2470.637,13.29,0.017,190.0
2022-04-17T01:46:03,42.805,6.029,0.007,-0.001,0.004,102.0,103.0,101.0,13.4,1505.2,331.0,-0.8,1.8,2470.604,13.29,0.007,98.1
2022-04-17T01:49:03,42.805,6.029,0.015,-0.011,-0.005,102.0,104.0,101.0,13.4,1505.2,325.3,-0.7,1.8,2470.618,13.29,0.018,126.3
2022-04-17T01:52:03,42.805,6.029,-0.022,-0.014,-0.021,104.0,102.0,101.0,13.4,1505.2,327.1,-0.8,1.8,2470.669,13.29,0.026,237.5
2022-04-17T01:55:03,42.805,6.029,-0.011,0.005,-0.019,104.0,103.0,101.0,13.3,1505.2,321.9,-0.8,1.9,2470.622,13.29,0.012,294.4
2022-04-17T01:58:03,42.805,6.029,-0.011,-0.016,-0.012,102.0,101.0,101.0,13.3,1505.2,328.4,-0.8,1.8,2470.594,13.29,0.019,214.5
2022-04-17T02:04:03,42.805,6.029,0.004,0.002,0.003,102.0,102.0,101.0,13.4,1505.2,324.5,-0.8,1.8,2470.53,13.28,0.004,63.4
2022-04-17T02:07:03,42.805,6.029,0.0,-0.023,-0.037,103.0,102.0,101.0,13.4,1505.2,329.5,-0.7,1.8,2470.509,13.28,0.023,180.0
2022-04-17T02:10:03,42.805,6.029,-0.005,0.014,0.0,103.0,103.0,101.0,13.4,1505.2,325.4,-0.8,1.8,2470.528,13.28,0.014,340.4
2022-04-17T02:13:03,42.805,6.029,0.0,0.0,0.02,100.0,102.0,102.0,13.4,1505.2,322.5,-0.8,1.8,2470.535,13.28,0.0,0.0
2022-04-17T02:16:03,42.805,6.029,0.017,-0.009,-0.021,103.0,103.0,100.0,13.4,1505.2,324.7,-0.7,1.8,2470.519,13.29,0.019,117.9
2022-04-17T02:19:03,42.805,6.029,0.019,-0.019,-0.04,101.0,103.0,102.0,13.4,1505.2,321.9,-0.8,1.8,2470.516,13.29,0.026,135.0
2022-04-17T02:22:03,42.805,6.029,0.016,-0.024,-0.009,102.0,104.0,102.0,13.4,1505.2,325.5,-0.8,1.8,2470.508,13.29,0.028,146.3
2022-04-17T02:25:03,42.805,6.029,0.008,-0.016,-0.012,103.0,102.0,102.0,13.4,1505.2,327.2,-0.8,1.8,2470.533,13.29,0.017,153.4
2022-04-17T02:28:03,42.805,6.029,-0.007,-0.002,-0.035,103.0,103.0,101.0,13.3,1505.2,322.7,-0.8,1.8,2470.533,13.29,0.007,254.1
2022-04-17T02:31:03,42.805,6.029,0.022,-0.01,0.004,101.0,103.0,100.0,13.4,1505.2,326.9,-0.7,1.8,2470.574,13.29,0.024,114.4
2022-04-17T02:34:03,42.805,6.029,0.007,-0.001,-0.014,103.0,100.0,102.0,13.4,1505.2,325.6,-0.7,1.8,2470.539,13.29,0.007,98.1
2022-04-17T02:37:03,42.805,6.029,-0.003,-0.015,-0.007,102.0,101.0,100.0,13.4,1505.2,326.2,-0.8,1.8,2470.518,13.29,0.015,191.3
2022-04-17T02:40:03,42.805,6.029,0.0,-0.015,-0.026,101.0,103.0,101.0,13.3,1505.2,323.8,-0.7,1.8,2470.507,13.29,0.015,180.0
2022-04-17T02:43:03,42.805,6.029,0.007,0.0,0.008,102.0,103.0,101.0,13.3,1505.2,327.1,-0.7,1.8,2470.546,13.29,0.007,90.0
2022-04-17T02:46:03,42.805,6.029,-0.002,-0.016,0.014,104.0,101.0,103.0,13.4,1505.2,331.3,-0.8,1.8,2470.531,13.29,0.016,187.1
2022-04-17T02:49:03,42.805,6.029,0.021,-0.023,0.003,103.0,103.0,105.0,13.4,1505.2,326.0,-0.7,1.8,2470.569,13.29,0.031,137.6
2022-04-17T02:52:03,42.805,6.029,0.014,-0.001,-0.024,103.0,103.0,102.0,13.4,1505.2,326.9,-0.8,1.8,2470.58,13.29,0.014,94.1
2022-04-17T02:55:03,42.805,6.029,0.013,-0.004,0.004,104.0,103.0,100.0,13.4,1505.2,329.4,-0.8,1.8,2470.539,13.29,0.013,107.1
2022-04-17T02:58:03,42.805,6.029,0.014,0.002,-0.045,103.0,103.0,102.0,13.4,1505.2,327.0,-0.8,1.8,2470.506,13.29,0.014,81.9
2022-04-17T03:04:03,42.805,6.029,-0.002,-0.011,0.0,103.0,100.0,102.0,13.4,1505.2,327.4,-0.7,1.8,2470.579,13.28,0.011,190.3
2022-04-17T03:07:03,42.805,6.029,0.011,-0.009,-0.009,100.0,103.0,102.0,13.4,1505.2,328.4,-0.8,1.8,2470.603,13.28,0.014,129.3
2022-04-17T03:10:03,42.805,6.029,0.007,-0.002,-0.005,103.0,102.0,101.0,13.3,1505.2,326.4,-0.7,1.8,2470.557,13.28,0.007,105.9
2022-04-17T03:13:03,42.805,6.029,0.013,-0.007,-0.008,103.0,103.0,101.0,13.4,1505.2,323.8,-0.7,1.8,2470.588,13.28,0.014,118.3
2022-04-17T03:16:03,42.805,6.029,0.018,-0.025,0.011,101.0,103.0,101.0,13.4,1505.2,330.0,-0.8,1.8,2470.581,13.28,0.03,144.2
2022-04-17T03:19:03,42.805,6.029,0.039,-0.018,-0.044,101.0,102.0,101.0,13.4,1505.2,328.4,-0.8,1.8,2470.61,13.29,0.042,114.8
2022-04-17T03:22:03,42.805,6.029,0.011,-0.028,0.008,102.0,101.0,101.0,13.4,1505.2,333.0,-0.7,1.8,2470.601,13.29,0.03,158.6
2022-04-17T03:25:03,42.805,6.029,0.022,-0.015,-0.012,102.0,103.0,99.0,13.4,1505.2,327.7,-0.7,1.8,2470.623,13.29,0.026,124.3
2022-04-17T03:28:03,42.805,6.029,0.016,-0.009,-0.022,101.0,103.0,101.0,13.4,1505.2,327.4,-0.7,1.8,2470.615,13.29,0.018,119.4
2022-04-17T03:31:03,42.805,6.029,0.021,-0.007,-0.013,102.0,101.0,101.0,13.3,1505.2,328.9,-0.7,1.8,2470.593,13.29,0.022,108.4
2022-04-17T03:34:03,42.805,6.029,0.017,-0.01,0.006,102.0,102.0,101.0,13.3,1505.2,326.8,-0.7,1.8,2470.616,13.29,0.019,120.5
2022-04-17T03:37:03,42.805,6.029,0.02,-0.043,-0.037,102.0,102.0,101.0,13.4,1505.2,326.3,-0.8,1.8,2470.619,13.29,0.047,155.1
2022-04-17T03:40:03,42.805,6.029,0.003,-0.036,0.003,103.0,102.0,100.0,13.4,1505.2,324.2,-0.8,1.8,2470.658,13.29,0.036,175.2
2022-04-17T03:43:03,42.805,6.029,0.012,-0.025,-0.008,102.0,102.0,101.0,13.3,1505.2,324.8,-0.8,1.8,2470.631,13.29,0.027,154.4
2022-04-17T03:46:03,42.805,6.029,0.021,-0.009,-0.008,103.0,103.0,101.0,13.4,1505.2,329.7,-0.8,1.8,2470.627,13.28,0.022,113.2
2022-04-17T03:49:03,42.805,6.029,0.027,-0.017,-0.004,101.0,104.0,101.0,13.4,1505.2,328.6,-0.8,1.8,2470.668,13.29,0.031,122.2
2022-04-17T03:52:03,42.805,6.029,0.011,-0.011,-0.008,104.0,103.0,102.0,13.4,1505.2,322.5,-0.8,1.8,2470.645,13.28,0.015,135.0
2022-04-17T03:55:03,42.805,6.029,0.02,-0.023,-0.012,103.0,104.0,103.0,13.4,1505.2,323.5,-0.8,1.8,2470.602,13.29,0.03,139.0
2022-04-17T03:58:03,42.805,6.029,0.027,-0.018,-0.008,104.0,104.0,101.0,13.4,1505.2,333.4,-0.7,1.8,2470.652,13.29,0.032,123.7
2022-04-17T05:04:03,42.805,6.029,0.025,0.0,0.006,104.0,104.0,102.0,13.4,1505.1,322.9,-0.7,1.8,2471.074,13.27,0.025,90.0
2022-04-17T05:07:03,42.805,6.029,0.017,-0.005,0.007,106.0,103.0,101.0,13.4,1505.2,329.7,-0.8,1.8,2471.039,13.28,0.017,106.4
2022-04-17T05:10:03,42.805,6.029,0.013,-0.029,0.009,101.0,103.0,102.0,13.4,1505.2,326.5,-0.8,1.8,2471.01,13.28,0.031,155.9
2022-04-17T05:13:03,42.805,6.029,0.022,-0.026,-0.024,104.0,104.0,102.0,13.4,1505.2,330.3,-0.8,1.8,2471.012,13.28,0.034,139.8
2022-04-17T05:16:03,42.805,6.029,-0.004,-0.012,0.011,104.0,103.0,102.0,13.3,1505.2,328.8,-0.7,1.8,2470.898,13.28,0.012,198.4
2022-04-17T05:19:03,42.805,6.029,0.038,-0.022,0.014,105.0,103.0,102.0,13.4,1505.2,324.6,-0.8,1.8,2470.914,13.28,0.043,120.1
2022-04-17T05:22:03,42.805,6.029,0.012,-0.006,-0.006,104.0,104.0,101.0,13.3,1505.2,332.5,-0.7,1.8,2470.94,13.28,0.013,116.6
2022-04-17T05:25:03,42.805,6.029,0.011,-0.018,0.001,103.0,103.0,102.0,13.3,1505.2,329.4,-0.7,1.8,2470.889,13.28,0.021,148.6
2022-04-17T05:28:03,42.805,6.029,0.027,-0.039,-0.034,103.0,106.0,102.0,13.3,1505.2,325.8,-0.8,1.8,2470.853,13.28,0.047,145.3
2022-04-17T05:31:03,42.805,6.029,0.023,-0.014,-0.012,103.0,103.0,102.0,13.3,1505.2,332.3,-0.7,1.8,2470.858,13.28,0.026,121.3
2022-04-17T05:34:03,42.805,6.029,0.006,-0.02,0.019,104.0,101.0,101.0,13.4,1505.2,327.4,-0.8,1.8,2470.846,13.28,0.02,163.3
2022-04-17T05:37:03,42.805,6.029,0.025,-0.015,0.007,104.0,104.0,102.0,13.4,1505.2,324.8,-0.7,1.8,2470.832,13.28,0.029,121.0
2022-04-17T05:40:03,42.805,6.029,0.008,-0.022,-0.008,105.0,103.0,101.0,13.3,1505.2,328.3,-0.8,1.8,2470.821,13.28,0.023,160.0
2022-04-17T05:43:03,42.805,6.029,0.014,-0.023,-0.01,104.0,105.0,102.0,13.4,1505.2,322.1,-0.8,1.8,2470.861,13.28,0.026,148.7
2022-04-17T05:46:03,42.805,6.029,0.011,-0.009,0.0,103.0,103.0,102.0,13.4,1505.2,325.4,-0.8,1.8,2470.813,13.28,0.014,129.3
2022-04-17T05:49:03,42.805,6.029,-0.002,-0.009,0.003,104.0,103.0,101.0,13.3,1505.2,324.4,-0.8,1.8,2470.783,13.28,0.009,192.5
2022-04-17T05:52:03,42.805,6.029,0.013,-0.028,0.002,104.0,103.0,102.0,13.4,1505.2,324.5,-0.8,1.8,2470.798,13.28,0.03,155.1
2022-04-17T05:55:03,42.805,6.029,0.018,-0.014,0.007,104.0,105.0,101.0,13.4,1505.2,327.2,-0.8,1.8,2470.828,13.28,0.022,127.9
2022-04-17T05:58:03,42.805,6.029,0.016,0.007,0.017,103.0,103.0,101.0,13.4,1505.2,321.5,-0.8,1.8,2470.787,13.28,0.017,66.4
2022-04-17T06:04:03,42.805,6.029,0.02,-0.013,-0.023,104.0,103.0,102.0,13.3,1505.2,330.2,-0.8,1.8,2470.841,13.28,0.023,123.0
2022-04-17T06:07:03,42.805,6.029,0.027,-0.018,0.001,103.0,103.0,102.0,13.4,1505.2,325.8,-0.8,1.8,2470.826,13.28,0.032,123.7
2022-04-17T06:10:03,42.805,6.029,0.02,0.0,0.013,103.0,103.0,102.0,13.4,1505.2,325.3,-0.7,1.8,2470.815,13.28,0.02,90.0
2022-04-17T06:13:03,42.805,6.029,0.017,-0.012,0.002,104.0,103.0,103.0,13.4,1505.2,324.0,-0.8,1.8,2470.787,13.28,0.02,125.2
2022-04-17T06:16:03,42.805,6.029,0.032,-0.011,-0.017,104.0,102.0,102.0,13.4,1505.2,325.7,-0.7,1.8,2470.811,13.28,0.033,109.0
2022-04-17T06:19:03,42.805,6.029,0.006,0.0,0.012,103.0,103.0,102.0,13.3,1505.2,321.4,-0.8,1.8,2470.802,13.28,0.006,90.0
2022-04-17T06:22:03,42.805,6.029,0.041,-0.023,0.014,103.0,102.0,102.0,13.4,1505.2,329.4,-0.7,1.8,2470.821,13.28,0.047,119.3
2022-04-17T06:25:03,42.805,6.029,0.011,-0.023,-0.015,103.0,104.0,102.0,13.4,1505.2,324.4,-0.8,1.8,2470.783,13.28,0.025,154.4
2022-04-17T06:28:03,42.805,6.029,0.02,-0.007,0.017,104.0,103.0,102.0,13.3,1505.2,332.5,-0.8,1.9,2470.822,13.28,0.021,109.3
2022-04-17T06:31:03,42.805,6.029,0.027,0.003,-0.006,101.0,103.0,102.0,13.3,1505.2,330.4,-0.8,1.8,2470.791,13.28,0.027,83.7
2022-04-17T06:34:03,42.805,6.029,0.0,-0.017,0.004,103.0,103.0,102.0,13.3,1505.2,332.3,-0.8,1.8,2470.827,13.28,0.017,180.0
2022-04-17T06:37:03,42.805,6.029,0.032,-0.024,0.004,103.0,103.0,102.0,13.4,1505.2,325.7,-0.7,1.8,2470.792,13.28,0.04,126.9
2022-04-17T06:40:03,42.805,6.029,0.014,-0.006,0.01,103.0,105.0,104.0,13.3,1505.2,329.1,-0.7,1.8,2470.8,13.28,0.015,113.2
2022-04-17T06:43:03,42.805,6.029,0.025,-0.012,0.023,105.0,103.0,102.0,13.4,1505.2,326.7,-0.8,1.8,2470.806,13.28,0.027,115.6
2022-04-17T06:46:03,42.805,6.029,0.0,-0.006,-0.006,103.0,103.0,103.0,13.4,1505.2,325.0,-0.7,1.8,2470.815,13.28,0.006,180.0
2022-04-17T06:49:03,42.805,6.029,0.03,-0.001,0.007,105.0,102.0,102.0,13.4,1505.2,322.3,-0.8,1.8,2470.793,13.28,0.03,91.9
2022-04-17T06:52:03,42.805,6.029,0.028,-0.009,-0.005,105.0,104.0,101.0,13.4,1505.2,326.1,-0.8,1.8,2470.803,13.28,0.029,107.8
2022-04-17T06:55:03,42.805,6.029,0.02,-0.024,0.002,101.0,104.0,101.0,13.4,1505.2,329.1,-0.8,1.8,2470.843,13.28,0.031,140.2
2022-04-17T06:58:03,42.805,6.029,0.026,-0.021,-0.016,102.0,102.0,101.0,13.3,1505.2,329.0,-0.7,1.8,2470.804,13.28,0.033,128.9
2022-04-17T07:04:03,42.805,6.029,0.006,-0.018,0.004,102.0,103.0,100.0,13.3,1505.2,324.3,-0.8,1.8,2470.839,13.28,0.018,161.6
2022-04-17T07:07:03,42.805,6.029,0.016,-0.007,-0.005,102.0,103.0,101.0,13.4,1505.2,331.9,-0.8,1.8,2470.815,13.28,0.017,113.6
2022-04-17T07:10:03,42.805,6.029,0.014,-0.015,0.002,103.0,104.0,100.0,13.4,1505.2,327.5,-0.7,1.8,2470.857,13.28,0.02,137.0
2022-04-17T07:13:03,42.805,6.029,0.041,-0.025,0.0,103.0,103.0,101.0,13.3,1505.2,329.0,-0.7,1.8,2470.811,13.28,0.048,121.4
2022-04-17T07:16:03,42.805,6.029,0.016,-0.01,-0.02,103.0,102.0,101.0,13.4,1505.2,329.2,-0.8,1.9,2470.858,13.28,0.018,122.0
2022-04-17T07:19:03,42.805,6.029,0.012,-0.015,-0.014,103.0,102.0,101.0,13.4,1505.2,325.3,-0.8,1.8,2470.817,13.28,0.019,141.3
2022-04-17T07:22:03,42.805,6.029,0.03,-0.021,-0.009,103.0,103.0,102.0,13.4,1505.2,325.7,-0.8,1.8,2470.85,13.28,0.036,125.0
2022-04-17T07:25:03,42.805,6.029,0.027,-0.021,0.008,102.0,103.0,101.0,13.4,1505.2,327.1,-0.8,1.8,2470.809,13.28,0.034,127.9
2022-04-17T07:28:03,42.805,6.029,0.02,-0.013,-0.012,102.0,102.0,102.0,13.3,1505.2,324.7,-0.8,1.8,2470.815,13.28,0.023,123.0
2022-04-17T07:31:03,42.805,6.029,0.042,-0.023,-0.003,104.0,103.0,101.0,13.4,1505.2,332.5,-0.7,1.8,2470.874,13.28,0.047,118.7
2022-04-17T07:34:03,42.805,6.029,0.029,-0.028,0.017,102.0,104.0,101.0,13.4,1505.2,326.3,-0.7,1.8,2470.818,13.28,0.04,134.0
2022-04-17T07:37:03,42.805,6.029,0.027,-0.025,0.009,102.0,103.0,101.0,13.4,1505.2,331.9,-0.7,1.9,2470.845,13.28,0.036,132.8
2022-04-17T07:40:03,42.805,6.029,0.012,-0.007,0.013,103.0,102.0,101.0,13.4,1505.2,327.6,-0.7,1.8,2470.796,13.28,0.013,120.3
2022-04-17T07:43:03,42.805,6.029,0.016,-0.032,0.004,103.0,103.0,102.0,13.4,1505.2,323.3,-0.8,1.8,2470.841,13.28,0.035,153.4
2022-04-17T07:46:03,42.805,6.029,0.027,-0.014,-0.039,103.0,104.0,102.0,13.4,1505.2,327.3,-0.7,1.8,2470.839,13.28,0.03,117.4
2022-04-17T07:49:03,42.805,6.029,0.03,-0.01,-0.015,103.0,103.0,101.0,13.4,1505.2,325.2,-0.8,1.8,2470.813,13.28,0.031,108.4
2022-04-17T07:52:03,42.805,6.029,0.031,-0.03,-0.033,102.0,103.0,101.0,13.4,1505.2,329.6,-0.7,1.8,2470.846,13.28,0.043,134.1
2022-04-17T07:55:03,42.805,6.029,0.036,-0.011,0.005,102.0,105.0,101.0,13.3,1505.2,324.8,-0.8,1.8,2470.844,13.28,0.037,107.0
2022-04-17T07:58:03,42.805,6.029,0.015,-0.005,-0.002,103.0,101.0,102.0,13.4,1505.2,328.8,-0.7,1.8,2470.804,13.28,0.015,108.4
2022-04-17T08:04:03,42.805,6.029,0.02,-0.045,-0.032,102.0,102.0,101.0,13.4,1505.2,331.1,-0.8,1.8,2470.832,13.28,0.049,156.0
2022-04-17T08:07:03,42.805,6.029,0.04,-0.022,0.0,102.0,102.0,102.0,13.3,1505.2,324.2,-0.8,1.9,2470.868,13.28,0.045,118.8
2022-04-17T08:10:03,42.805,6.029,0.023,-0.006,0.008,102.0,103.0,101.0,13.4,1505.2,331.7,-0.8,1.8,2470.854,13.28,0.023,104.6
2022-04-17T08:13:03,42.805,6.029,0.031,-0.025,0.011,104.0,102.0,102.0,13.4,1505.2,322.9,-0.7,1.8,2470.799,13.28,0.039,128.9
2022-04-17T08:16:03,42.805,6.029,0.025,-0.013,0.008,104.0,103.0,102.0,13.3,1505.2,328.8,-0.8,1.8,2470.831,13.28,0.028,117.5
2022-04-17T08:19:03,42.805,6.029,0.02,-0.021,-0.031,104.0,102.0,102.0,13.3,1505.2,330.6,-0.8,1.8,2470.799,13.28,0.028,136.4
2022-04-17T08:22:03,42.805,6.029,0.041,-0.028,-0.038,103.0,103.0,102.0,13.3,1505.2,328.7,-0.8,1.8,2470.834,13.28,0.049,124.3
2022-04-17T08:25:03,42.805,6.029,0.023,-0.02,0.011,102.0,103.0,103.0,13.4,1505.2,331.5,-0.7,1.8,2470.785,13.28,0.03,131.0
2022-04-17T08:28:03,42.805,6.029,0.014,-0.029,0.003,102.0,102.0,103.0,13.4,1505.2,325.0,-0.8,1.9,2470.81,13.28,0.032,154.2
2022-04-17T08:31:03,42.805,6.029,0.04,-0.022,-0.001,104.0,102.0,101.0,13.4,1505.2,323.7,-0.8,1.8,2470.799,13.28,0.045,118.8
2022-04-17T08:34:03,42.805,6.029,0.006,-0.031,-0.021,105.0,103.0,102.0,13.4,1505.2,332.1,-0.7,1.8,2470.806,13.28,0.031,169.0
2022-04-17T08:37:03,42.805,6.029,-0.003,-0.019,0.015,104.0,104.0,102.0,13.4,1505.2,330.0,-0.8,1.8,2470.816,13.28,0.019,189.0
2022-04-17T08:40:03,42.805,6.029,0.018,-0.024,-0.005,103.0,104.0,103.0,13.4,1505.2,330.1,-0.7,1.8,2470.76,13.28,0.03,143.1
2022-04-17T08:43:03,42.805,6.029,0.03,-0.023,-0.017,104.0,108.0,102.0,13.4,1505.2,325.1,-0.8,1.8,2470.78,13.28,0.037,127.5
2022-04-17T08:46:03,42.805,6.029,0.019,-0.025,0.002,103.0,103.0,102.0,13.4,1505.2,321.3,-0.7,1.8,2470.84,13.28,0.031,142.8
2022-04-17T08:49:03,42.805,6.029,0.028,-0.022,-0.013,102.0,105.0,101.0,13.4,1505.2,321.8,-0.7,1.8,2470.826,13.28,0.035,128.2
2022-04-17T08:52:03,42.805,6.029,0.037,-0.018,0.0,103.0,104.0,101.0,13.4,1505.2,326.0,-0.8,1.8,2470.785,13.28,0.041,115.9
2022-04-17T08:55:03,42.805,6.029,0.023,-0.014,-0.008,105.0,103.0,102.0,13.4,1505.2,331.1,-0.7,1.8,2470.789,13.28,0.026,121.3
2022-04-17T08:58:03,42.805,6.029,0.015,-0.003,0.001,103.0,104.0,102.0,13.4,1505.2,324.5,-0.7,1.8,2470.783,13.28,0.015,101.3
2022-04-17T09:04:03,42.805,6.029,-0.012,-0.045,-0.016,102.0,103.0,102.0,13.4,1505.2,329.1,-0.7,1.8,2470.835,13.28,0.046,194.9
2022-04-17T09:07:03,42.805,6.029,0.016,-0.038,0.001,103.0,103.0,102.0,13.4,1505.2,332.8,-0.8,1.8,2470.755,13.28,0.041,157.2
2022-04-17T09:10:03,42.805,6.029,0.001,-0.032,-0.015,102.0,104.0,101.0,13.4,1505.2,323.5,-0.7,1.8,2470.817,13.28,0.032,178.2
2022-04-17T09:13:03,42.805,6.029,-0.002,-0.035,-0.041,104.0,101.0,101.0,13.3,1505.2,323.9,-0.8,1.8,2470.778,13.28,0.035,183.3
2022-04-17T09:16:03,42.805,6.029,0.0,-0.006,-0.03,102.0,103.0,102.0,13.4,1505.2,329.6,-0.7,1.8,2470.8,13.28,0.006,180.0
2022-04-17T09:19:03,42.805,6.029,0.015,-0.023,-0.036,102.0,102.0,102.0,13.4,1505.2,325.0,-0.8,1.8,2470.795,13.28,0.027,146.9
2022-04-17T09:22:03,42.805,6.029,0.0,-0.01,-0.001,102.0,103.0,103.0,13.3,1505.2,323.7,-0.8,1.8,2470.802,13.28,0.01,180.0
2022-04-17T09:25:03,42.805,6.029,0.004,-0.022,0.0,106.0,104.0,103.0,13.4,1505.2,327.7,-0.7,1.9,2470.809,13.28,0.022,169.7
2022-04-17T09:28:03,42.805,6.029,0.017,-0.022,-0.021,103.0,104.0,102.0,13.4,1505.2,330.8,-0.8,1.8,2470.756,13.28,0.027,142.3
2022-04-17T09:31:03,42.805,6.029,0.011,-0.034,-0.04,105.0,103.0,102.0,13.4,1505.2,325.9,-0.8,1.8,2470.766,13.28,0.035,162.1
2022-04-17T09:34:03,42.805,6.029,0.012,-0.02,0.001,104.0,103.0,102.0,13.3,1505.2,326.0,-0.7,1.8,2470.758,13.28,0.023,149.0
2022-04-17T09:37:03,42.805,6.029,-0.006,-0.024,-0.024,104.0,103.0,102.0,13.4,1505.2,329.6,-0.8,1.8,2470.747,13.28,0.024,194.0
2022-04-17T09:40:03,42.805,6.029,0.002,-0.03,-0.007,104.0,103.0,101.0,13.4,1505.2,324.6,-0.7,1.8,2470.754,13.28,0.03,176.2
2022-04-17T09:43:03,42.805,6.029,-0.013,-0.024,-0.026,104.0,103.0,103.0,13.4,1505.2,324.8,-0.8,1.8,2470.752,13.28,0.027,208.4
2022-04-17T09:46:03,42.805,6.029,0.016,-0.03,-0.018,104.0,104.0,101.0,13.4,1505.2,324.5,-0.7,1.8,2470.746,13.28,0.034,151.9
2022-04-17T09:49:03,42.805,6.029,0.014,-0.035,-0.02,104.0,104.0,101.0,13.4,1505.2,327.7,-0.7,1.8,2470.79,13.28,0.037,158.2
2022-04-17T09:52:03,42.805,6.029,0.013,-0.011,-0.01,103.0,102.0,102.0,13.4,1505.2,329.7,-0.8,1.8,2470.801,13.28,0.017,130.2
2022-04-17T09:55:03,42.805,6.029,0.015,-0.047,-0.034,104.0,102.0,102.0,13.3,1505.2,324.5,-0.8,1.8,2470.741,13.28,0.049,162.3
2022-04-17T09:58:03,42.805,6.029,-0.01,-0.03,0.0,105.0,103.0,103.0,13.3,1505.2,328.0,-0.8,1.8,2470.726,13.28,0.031,198.4
2022-04-17T10:04:03,42.805,6.029,0.015,-0.034,-0.016,104.0,104.0,102.0,13.4,1505.2,331.3,-0.7,1.8,2470.79,13.28,0.037,156.2
2022-04-17T10:07:03,42.805,6.029,0.019,-0.031,-0.008,104.0,104.0,102.0,13.4,1505.2,326.8,-0.7,1.8,2470.77,13.28,0.036,148.5
2022-04-17T10:10:03,42.805,6.029,0.013,-0.035,-0.02,104.0,104.0,103.0,13.4,1505.2,325.5,-0.7,1.8,2470.766,13.28,0.037,159.6
2022-04-17T10:13:03,42.805,6.029,0.008,-0.036,-0.023,104.0,104.0,102.0,13.3,1505.2,322.2,-0.7,1.8,2470.737,13.28,0.036,167.5
2022-04-17T10:16:03,42.805,6.029,-0.006,-0.015,-0.01,105.0,103.0,102.0,13.4,1505.2,329.9,-0.7,1.8,2470.727,13.28,0.016,201.8
2022-04-17T10:19:03,42.805,6.029,0.01,-0.024,-0.022,105.0,103.0,102.0,13.4,1505.2,331.2,-0.8,1.8,2470.765,13.28,0.026,157.4
2022-04-17T10:22:03,42.805,6.029,0.001,-0.043,-0.021,103.0,104.0,102.0,13.3,1505.2,326.1,-0.7,1.8,2470.737,13.28,0.043,178.7
2022-04-17T10:25:03,42.805,6.029,0.013,-0.021,-0.021,104.0,103.0,103.0,13.4,1505.2,323.0,-0.7,1.8,2470.731,13.28,0.024,148.2
2022-04-17T10:28:03,42.805,6.029,0.027,-0.031,0.006,104.0,103.0,101.0,13.4,1505.2,322.4,-0.8,1.8,2470.739,13.28,0.041,138.9
2022-04-17T10:31:03,42.805,6.029,0.013,-0.039,0.001,104.0,101.0,102.0,13.3,1505.2,322.9,-0.8,1.8,2470.724,13.28,0.041,161.6
2022-04-17T10:34:03,42.805,6.029,-0.003,-0.01,-0.017,104.0,104.0,103.0,13.3,1505.2,322.6,-0.8,1.8,2470.699,13.28,0.01,196.7
2022-04-17T10:37:03,42.805,6.029,0.005,-0.022,-0.008,104.0,103.0,102.0,13.3,1505.2,323.6,-0.8,1.8,2470.657,13.28,0.022,167.2
2022-04-17T10:40:03,42.805,6.029,-0.006,-0.03,-0.025,103.0,104.0,102.0,13.4,1505.2,332.8,-0.7,1.8,2470.717,13.28,0.03,191.3
2022-04-17T10:43:03,42.805,6.029,-0.007,-0.015,0.007,103.0,103.0,102.0,13.3,1505.2,325.6,-0.8,1.8,2470.695,13.28,0.016,205.0
2022-04-17T10:46:03,42.805,6.029,0.006,-0.02,-0.02,105.0,103.0,102.0,13.4,1505.2,323.1,-0.7,1.8,2470.683,13.28,0.02,163.3
2022-04-17T10:49:03,42.805,6.029,0.001,-0.018,-0.033,103.0,103.0,102.0,13.4,1505.2,329.1,-0.7,1.8,2470.698,13.28,0.018,176.8
2022-04-17T10:52:03,42.805,6.029,-0.008,-0.02,-0.027,104.0,104.0,102.0,13.4,1505.2,325.5,-0.8,1.8,2470.689,13.28,0.021,201.8
2022-04-17T10:55:03,42.805,6.029,-0.001,-0.027,0.001,105.0,103.0,102.0,13.3,1505.2,327.9,-0.8,1.8,2470.72,13.28,0.027,182.1